Station Historical Data
Daily Summary for May 13, 2017 Units:  English    Metric   Both
« Previous Day
Next Day »
Daily Weekly Monthly Yearly Custom
  High: Low: Average:
Temperature: 61.0 °F 50.4 °F 55.6 °F
Dew Point: 49.3 °F 43.4 °F 45.5 °F
Humidity: 78% 58% 69%
Wind Speed: 9.0mph 0.0mph 2.5mph
Wind Gust: 12.0mph - -
Wind- - SW
Pressure: 29.90 in 29.77 in -
Precipitation: 0.00 in    
Historical Graphs
 
 
Tabular Data for May 13, 2017
Time Temperature Dew Point Pressure Wind Wind Speed Wind Gust Humidity Rainfall Rate (Hourly)
00:04 55.0 °F 43.8 °F 29.90 in South 1.0 mph 4.0 mph 66% 0.00 in
00:09 55.0 °F 43.8 °F 29.89 in Calm   3.0 mph 66% 0.00 in
00:14 55.1 °F 43.5 °F 29.90 in South 1.0 mph 4.0 mph 65% 0.00 in
00:19 55.1 °F 43.5 °F 29.90 in South 1.0 mph 4.0 mph 65% 0.00 in
00:24 55.1 °F 43.5 °F 29.90 in South 2.0 mph 3.0 mph 65% 0.00 in
00:29 55.0 °F 43.4 °F 29.90 in Calm   4.0 mph 65% 0.00 in
00:34 55.0 °F 43.4 °F 29.90 in South 1.0 mph 4.0 mph 65% 0.00 in
00:39 55.0 °F 43.4 °F 29.90 in South 2.0 mph 3.0 mph 65% 0.00 in
00:44 54.9 °F 43.7 °F 29.89 in South 1.0 mph 3.0 mph 66% 0.00 in
00:49 54.8 °F 43.7 °F 29.89 in South 1.0 mph 5.0 mph 66% 0.00 in
00:54 54.9 °F 43.7 °F 29.89 in South 2.0 mph 5.0 mph 66% 0.00 in
00:59 54.8 °F 44.0 °F 29.89 in South 1.0 mph 3.0 mph 67% 0.00 in
01:04 54.7 °F 43.6 °F 29.89 in South 1.0 mph 3.0 mph 66% 0.00 in
01:09 54.7 °F 44.0 °F 29.89 in South 1.0 mph 3.0 mph 67% 0.00 in
01:14 54.7 °F 44.0 °F 29.89 in Calm   1.0 mph 67% 0.00 in
01:19 54.6 °F 43.9 °F 29.89 in Calm   3.0 mph 67% 0.00 in
01:24 54.6 °F 43.9 °F 29.89 in Calm   3.0 mph 67% 0.00 in
01:29 54.5 °F 43.8 °F 29.89 in Calm     67% 0.00 in
01:34 54.5 °F 44.2 °F 29.89 in Calm   3.0 mph 68% 0.00 in
01:39 54.4 °F 44.1 °F 29.89 in Calm   2.0 mph 68% 0.00 in
01:44 54.3 °F 44.0 °F 29.89 in Calm     68% 0.00 in
01:49 54.1 °F 43.8 °F 29.89 in Calm     68% 0.00 in
01:54 54.2 °F 44.2 °F 29.88 in Calm     69% 0.00 in
01:59 54.1 °F 44.2 °F 29.88 in Calm     69% 0.00 in
02:04 54.1 °F 44.2 °F 29.88 in Calm   2.0 mph 69% 0.00 in
02:09 53.9 °F 44.0 °F 29.88 in South 1.0 mph 3.0 mph 69% 0.00 in
02:14 53.9 °F 44.0 °F 29.88 in South 1.0 mph 3.0 mph 69% 0.00 in
02:19 53.8 °F 44.2 °F 29.88 in South 1.0 mph 3.0 mph 70% 0.00 in
02:24 53.8 °F 44.2 °F 29.88 in South 1.0 mph 4.0 mph 70% 0.00 in
02:29 53.7 °F 44.1 °F 29.88 in South 1.0 mph 4.0 mph 70% 0.00 in
02:34 53.6 °F 44.0 °F 29.88 in Calm   2.0 mph 70% 0.00 in
02:39 53.6 °F 44.4 °F 29.88 in South 1.0 mph 2.0 mph 71% 0.00 in
02:44 53.5 °F 44.3 °F 29.87 in Calm   2.0 mph 71% 0.00 in
02:49 53.6 °F 44.4 °F 29.87 in Calm   3.0 mph 71% 0.00 in
02:54 53.5 °F 44.3 °F 29.87 in Calm   3.0 mph 71% 0.00 in
02:59 53.5 °F 44.3 °F 29.87 in Calm   1.0 mph 71% 0.00 in
03:04 53.5 °F 44.3 °F 29.87 in SSW 2.0 mph 2.0 mph 71% 0.00 in
03:09 53.4 °F 44.2 °F 29.87 in Calm   2.0 mph 71% 0.00 in
03:14 53.4 °F 44.2 °F 29.87 in Calm     71% 0.00 in
03:19 53.4 °F 44.2 °F 29.87 in Calm   2.0 mph 71% 0.00 in
03:24 53.4 °F 44.2 °F 29.87 in Calm   2.0 mph 71% 0.00 in
03:29 53.3 °F 44.1 °F 29.87 in South 1.0 mph 3.0 mph 71% 0.00 in
03:34 53.3 °F 44.1 °F 29.87 in South 1.0 mph 3.0 mph 71% 0.00 in
03:39 53.3 °F 44.5 °F 29.87 in South 1.0 mph 3.0 mph 72% 0.00 in
03:44 53.3 °F 44.5 °F 29.87 in South 1.0 mph 3.0 mph 72% 0.00 in
03:49 53.2 °F 44.4 °F 29.87 in SSW 3.0 mph 5.0 mph 72% 0.00 in
03:54 53.2 °F 44.8 °F 29.87 in SSW 2.0 mph 4.0 mph 73% 0.00 in
03:59 53.2 °F 44.8 °F 29.87 in SSW 1.0 mph 3.0 mph 73% 0.00 in
04:04 53.2 °F 44.8 °F 29.87 in Calm   5.0 mph 73% 0.00 in
04:09 53.2 °F 44.8 °F 29.86 in SSE 2.0 mph 6.0 mph 73% 0.00 in
04:14 53.1 °F 44.7 °F 29.86 in SSE 3.0 mph 6.0 mph 73% 0.00 in
04:19 53.1 °F 45.0 °F 29.86 in SSE 2.0 mph 5.0 mph 74% 0.00 in
04:24 53.1 °F 45.0 °F 29.86 in SSE 1.0 mph 4.0 mph 74% 0.00 in
04:29 53.0 °F 44.9 °F 29.86 in South 2.0 mph 5.0 mph 74% 0.00 in
04:34 53.0 °F 44.9 °F 29.86 in SSE 1.0 mph 5.0 mph 74% 0.00 in
04:39 52.9 °F 44.8 °F 29.86 in SSE 2.0 mph 3.0 mph 74% 0.00 in
04:44 52.8 °F 45.1 °F 29.86 in SSE 1.0 mph 5.0 mph 75% 0.00 in
04:49 52.8 °F 45.1 °F 29.86 in South 2.0 mph 5.0 mph 75% 0.00 in
04:54 52.8 °F 45.1 °F 29.86 in SSE 2.0 mph 6.0 mph 75% 0.00 in
04:59 52.8 °F 45.1 °F 29.86 in SSE 1.0 mph 5.0 mph 75% 0.00 in
05:04 52.7 °F 45.3 °F 29.86 in SSE 1.0 mph 3.0 mph 76% 0.00 in
05:09 52.6 °F 45.2 °F 29.86 in Calm   3.0 mph 76% 0.00 in
05:14 52.6 °F 45.2 °F 29.86 in SSE 1.0 mph 5.0 mph 76% 0.00 in
05:19 52.5 °F 45.2 °F 29.86 in SSE 2.0 mph 5.0 mph 76% 0.00 in
05:24 52.5 °F 45.2 °F 29.86 in SSE 2.0 mph 4.0 mph 76% 0.00 in
05:29 52.4 °F 45.1 °F 29.86 in SSE 2.0 mph 4.0 mph 76% 0.00 in
05:34 52.4 °F 45.1 °F 29.86 in SSE 2.0 mph 5.0 mph 76% 0.00 in
05:39 52.4 °F 45.1 °F 29.86 in Calm   4.0 mph 76% 0.00 in
05:44 52.4 °F 45.4 °F 29.86 in SSE 1.0 mph 4.0 mph 77% 0.00 in
05:49 52.3 °F 45.3 °F 29.86 in SE 1.0 mph 4.0 mph 77% 0.00 in
05:54 52.3 °F 45.3 °F 29.86 in SSE 1.0 mph 4.0 mph 77% 0.00 in
05:59 52.2 °F 45.2 °F 29.86 in South 3.0 mph 3.0 mph 77% 0.00 in
06:04 52.3 °F 45.3 °F 29.86 in South 1.0 mph 3.0 mph 77% 0.00 in
06:09 52.2 °F 45.2 °F 29.86 in South 2.0 mph 5.0 mph 77% 0.00 in
06:14 52.1 °F 45.1 °F 29.86 in South 2.0 mph 5.0 mph 77% 0.00 in
06:19 52.2 °F 45.2 °F 29.86 in SSE 1.0 mph 5.0 mph 77% 0.00 in
06:24 52.3 °F 45.3 °F 29.86 in SSE 2.0 mph 4.0 mph 77% 0.00 in
06:29 52.2 °F 45.2 °F 29.87 in SSE 1.0 mph 3.0 mph 77% 0.00 in
06:34 52.3 °F 45.3 °F 29.87 in Calm   5.0 mph 77% 0.00 in
06:39 52.2 °F 45.2 °F 29.87 in SSE 1.0 mph 5.0 mph 77% 0.00 in
06:44 52.2 °F 45.2 °F 29.87 in Calm   3.0 mph 77% 0.00 in
06:49 52.2 °F 45.2 °F 29.87 in SSE 1.0 mph 3.0 mph 77% 0.00 in
06:54 52.3 °F 45.3 °F 29.87 in SSE 1.0 mph 3.0 mph 77% 0.00 in
06:59 52.3 °F 45.6 °F 29.87 in South 2.0 mph 5.0 mph 78% 0.00 in
07:04 52.4 °F 45.7 °F 29.87 in South 2.0 mph 5.0 mph 78% 0.00 in
07:09 52.4 °F 45.7 °F 29.87 in SSW 1.0 mph 4.0 mph 78% 0.00 in
07:14 52.4 °F 45.7 °F 29.87 in South 1.0 mph 4.0 mph 78% 0.00 in
07:19 52.4 °F 45.7 °F 29.87 in Calm   5.0 mph 78% 0.00 in
07:24 52.4 °F 45.7 °F 29.87 in South 1.0 mph 5.0 mph 78% 0.00 in
07:29 52.5 °F 45.8 °F 29.87 in Calm   1.0 mph 78% 0.00 in
07:34 52.6 °F 45.6 °F 29.87 in SSW 3.0 mph 4.0 mph 77% 0.00 in
07:39 52.7 °F 46.0 °F 29.87 in SSW 1.0 mph 4.0 mph 78% 0.00 in
07:44 52.8 °F 45.8 °F 29.87 in SSW 1.0 mph 4.0 mph 77% 0.00 in
07:49 53.0 °F 46.0 °F 29.87 in SSW 1.0 mph 4.0 mph 77% 0.00 in
07:54 53.1 °F 46.1 °F 29.87 in SW 2.0 mph 4.0 mph 77% 0.00 in
07:59 53.2 °F 46.2 °F 29.87 in SSW 3.0 mph 6.0 mph 77% 0.00 in
08:04 53.2 °F 46.2 °F 29.87 in SSW 2.0 mph 6.0 mph 77% 0.00 in
08:09 53.4 °F 46.4 °F 29.87 in SSW 2.0 mph 6.0 mph 77% 0.00 in
08:14 53.4 °F 46.4 °F 29.87 in SSW 2.0 mph 5.0 mph 77% 0.00 in
08:19 53.4 °F 46.4 °F 29.86 in South 3.0 mph 6.0 mph 77% 0.00 in
08:24 53.4 °F 46.4 °F 29.86 in South 3.0 mph 6.0 mph 77% 0.00 in
08:29 53.6 °F 46.6 °F 29.87 in SSW 1.0 mph 4.0 mph 77% 0.00 in
08:34 53.8 °F 46.8 °F 29.87 in SSW 2.0 mph 6.0 mph 77% 0.00 in
08:39 53.9 °F 46.9 °F 29.86 in South 4.0 mph 6.0 mph 77% 0.00 in
08:44 54.1 °F 47.0 °F 29.86 in South 2.0 mph 6.0 mph 77% 0.00 in
08:49 54.1 °F 46.7 °F 29.86 in SSW 2.0 mph 6.0 mph 76% 0.00 in
08:54 54.1 °F 46.7 °F 29.87 in SW 5.0 mph 6.0 mph 76% 0.00 in
08:59 54.1 °F 46.7 °F 29.87 in WSW 3.0 mph 5.0 mph 76% 0.00 in
09:04 54.1 °F 47.0 °F 29.87 in SW 3.0 mph 7.0 mph 77% 0.00 in
09:09 54.2 °F 47.1 °F 29.87 in SW 3.0 mph 7.0 mph 77% 0.00 in
09:14 54.3 °F 47.2 °F 29.87 in SSW 3.0 mph 5.0 mph 77% 0.00 in
09:19 54.4 °F 47.0 °F 29.87 in SSW 3.0 mph 7.0 mph 76% 0.00 in
09:24 54.4 °F 47.0 °F 29.87 in SW 2.0 mph 7.0 mph 76% 0.00 in
09:29 54.4 °F 47.0 °F 29.87 in Calm   3.0 mph 76% 0.00 in
09:34 54.6 °F 46.8 °F 29.87 in SW 4.0 mph 5.0 mph 75% 0.00 in
09:39 54.6 °F 46.8 °F 29.87 in West 4.0 mph 6.0 mph 75% 0.00 in
09:44 54.6 °F 46.8 °F 29.87 in SSW 3.0 mph 7.0 mph 75% 0.00 in
09:49 54.7 °F 46.9 °F 29.87 in SW 3.0 mph 5.0 mph 75% 0.00 in
09:54 54.9 °F 47.1 °F 29.87 in SW 5.0 mph 6.0 mph 75% 0.00 in
09:59 54.9 °F 46.8 °F 29.87 in SW 3.0 mph 7.0 mph 74% 0.00 in
10:04 55.0 °F 46.9 °F 29.87 in WSW 3.0 mph 7.0 mph 74% 0.00 in
10:09 55.0 °F 47.2 °F 29.87 in WSW 3.0 mph 7.0 mph 75% 0.00 in
10:14 54.9 °F 46.8 °F 29.88 in SW 4.0 mph 8.0 mph 74% 0.00 in
10:19 54.8 °F 46.7 °F 29.88 in SW 4.0 mph 8.0 mph 74% 0.00 in
10:24 54.7 °F 46.9 °F 29.88 in Calm   7.0 mph 75% 0.00 in
10:29 54.8 °F 46.7 °F 29.87 in SSW 3.0 mph 7.0 mph 74% 0.00 in
10:34 55.1 °F 46.6 °F 29.87 in WSW 3.0 mph 7.0 mph 73% 0.00 in
10:39 55.3 °F 47.2 °F 29.87 in West 3.0 mph 6.0 mph 74% 0.00 in
10:44 55.3 °F 46.8 °F 29.87 in WSW 3.0 mph 7.0 mph 73% 0.00 in
10:49 55.8 °F 47.6 °F 29.87 in WSW 3.0 mph 7.0 mph 74% 0.00 in
10:54 56.0 °F 47.1 °F 29.87 in SW 3.0 mph 8.0 mph 72% 0.00 in
10:59 55.8 °F 46.9 °F 29.87 in SW 1.0 mph 7.0 mph 72% 0.00 in
11:04 56.2 °F 46.5 °F 29.87 in West 3.0 mph 8.0 mph 70% 0.00 in
11:09 57.8 °F 47.7 °F 29.87 in WSW 3.0 mph 8.0 mph 69% 0.00 in
11:14 58.2 °F 47.3 °F 29.87 in West 4.0 mph 8.0 mph 67% 0.00 in
11:19 57.7 °F 46.0 °F 29.87 in West 1.0 mph 9.0 mph 65% 0.00 in
11:24 57.7 °F 46.4 °F 29.86 in WSW 7.0 mph 11.0 mph 66% 0.00 in
11:29 57.7 °F 46.4 °F 29.86 in WSW 4.0 mph 7.0 mph 66% 0.00 in
11:34 58.2 °F 46.9 °F 29.86 in WSW 5.0 mph 10.0 mph 66% 0.00 in
11:39 57.2 °F 45.9 °F 29.86 in WSW 5.0 mph 10.0 mph 66% 0.00 in
11:44 56.8 °F 45.6 °F 29.86 in WSW 4.0 mph 8.0 mph 66% 0.00 in
11:49 56.4 °F 45.6 °F 29.86 in WSW 4.0 mph 8.0 mph 67% 0.00 in
11:54 56.5 °F 45.3 °F 29.86 in SW 5.0 mph 7.0 mph 66% 0.00 in
11:59 56.5 °F 45.7 °F 29.86 in WSW 5.0 mph 10.0 mph 67% 0.00 in
12:04 56.4 °F 45.6 °F 29.86 in SW 5.0 mph 10.0 mph 67% 0.00 in
12:09 56.5 °F 45.7 °F 29.86 in SW 5.0 mph 8.0 mph 67% 0.00 in
12:14 57.2 °F 46.7 °F 29.86 in SW 5.0 mph 8.0 mph 68% 0.00 in
12:19 58.6 °F 46.9 °F 29.85 in WSW 4.0 mph 8.0 mph 65% 0.00 in
12:24 59.4 °F 47.2 °F 29.85 in SW 3.0 mph 8.0 mph 64% 0.00 in
12:29 60.0 °F 46.9 °F 29.85 in SW 3.0 mph 9.0 mph 62% 0.00 in
12:34 60.0 °F 47.4 °F 29.85 in WSW 5.0 mph 9.0 mph 63% 0.00 in
12:39 59.7 °F 46.7 °F 29.85 in WSW 5.0 mph 11.0 mph 62% 0.00 in
12:44 60.7 °F 49.3 °F 29.85 in SW 7.0 mph 9.0 mph 66% 0.00 in
12:49 60.7 °F 47.2 °F 29.85 in WNW 3.0 mph 12.0 mph 61% 0.00 in
12:54 60.1 °F 46.2 °F 29.85 in WSW 3.0 mph 10.0 mph 60% 0.00 in
12:59 60.3 °F 46.4 °F 29.85 in WSW 4.0 mph 7.0 mph 60% 0.00 in
13:04 60.7 °F 46.7 °F 29.85 in WSW 4.0 mph 8.0 mph 60% 0.00 in
13:09 61.0 °F 47.4 °F 29.85 in SW 4.0 mph 10.0 mph 61% 0.00 in
13:14 60.8 °F 46.8 °F 29.85 in SW 4.0 mph 10.0 mph 60% 0.00 in
13:19 60.2 °F 46.3 °F 29.85 in SW 4.0 mph 9.0 mph 60% 0.00 in
13:24 59.6 °F 47.0 °F 29.85 in WSW 5.0 mph 11.0 mph 63% 0.00 in
13:29 59.5 °F 47.3 °F 29.85 in WSW 4.0 mph 9.0 mph 64% 0.00 in
13:34 59.8 °F 46.7 °F 29.85 in SW 4.0 mph 9.0 mph 62% 0.00 in
13:39 59.9 °F 46.4 °F 29.85 in SSW 4.0 mph 11.0 mph 61% 0.00 in
13:44 59.5 °F 46.5 °F 29.85 in SW 1.0 mph 10.0 mph 62% 0.00 in
13:49 59.5 °F 46.9 °F 29.85 in WSW 6.0 mph 9.0 mph 63% 0.00 in
13:54 59.4 °F 46.4 °F 29.84 in WSW 3.0 mph 8.0 mph 62% 0.00 in
13:59 59.4 °F 45.9 °F 29.84 in WSW 4.0 mph 10.0 mph 61% 0.00 in
14:04 59.1 °F 46.1 °F 29.84 in SW 5.0 mph 10.0 mph 62% 0.00 in
14:09 58.9 °F 46.3 °F 29.84 in SW 5.0 mph 11.0 mph 63% 0.00 in
14:14 58.8 °F 46.6 °F 29.84 in SW 5.0 mph 11.0 mph 64% 0.00 in
14:19 58.8 °F 46.6 °F 29.84 in SW 4.0 mph 10.0 mph 64% 0.00 in
14:24 58.9 °F 46.3 °F 29.84 in West 4.0 mph 10.0 mph 63% 0.00 in
14:29 59.0 °F 46.4 °F 29.84 in SW 4.0 mph 10.0 mph 63% 0.00 in
14:34 58.9 °F 46.3 °F 29.84 in WSW 6.0 mph 11.0 mph 63% 0.00 in
14:39 58.9 °F 46.7 °F 29.84 in SW 9.0 mph 12.0 mph 64% 0.00 in
14:44 58.8 °F 46.6 °F 29.84 in WNW 3.0 mph 10.0 mph 64% 0.00 in
14:49 58.6 °F 46.0 °F 29.83 in WSW 4.0 mph 9.0 mph 63% 0.00 in
14:54 58.5 °F 46.8 °F 29.83 in WSW 8.0 mph 9.0 mph 65% 0.00 in
14:59 58.3 °F 46.2 °F 29.83 in SW 4.0 mph 8.0 mph 64% 0.00 in
15:04 58.3 °F 47.0 °F 29.83 in WSW 4.0 mph 8.0 mph 66% 0.00 in
15:09 58.5 °F 47.2 °F 29.83 in SW 4.0 mph 8.0 mph 66% 0.00 in
15:14 58.6 °F 46.9 °F 29.83 in SSW 4.0 mph 9.0 mph 65% 0.00 in
15:19 59.3 °F 48.3 °F 29.83 in SW 3.0 mph 8.0 mph 67% 0.00 in
15:24 59.4 °F 47.6 °F 29.82 in WSW 3.0 mph 9.0 mph 65% 0.00 in
15:29 58.9 °F 47.2 °F 29.82 in WSW 6.0 mph 9.0 mph 65% 0.00 in
15:34 59.5 °F 47.7 °F 29.82 in WSW 5.0 mph 9.0 mph 65% 0.00 in
15:39 60.1 °F 47.5 °F 29.82 in WSW 5.0 mph 10.0 mph 63% 0.00 in
15:44 60.5 °F 48.3 °F 29.82 in SW 6.0 mph 10.0 mph 64% 0.00 in
15:49 60.4 °F 47.3 °F 29.82 in SW 6.0 mph 10.0 mph 62% 0.00 in
15:54 60.3 °F 46.8 °F 29.81 in SW 5.0 mph 10.0 mph 61% 0.00 in
15:59 59.7 °F 46.7 °F 29.82 in South 7.0 mph 8.0 mph 62% 0.00 in
16:04 58.9 °F 46.7 °F 29.82 in SSE 2.0 mph 7.0 mph 64% 0.00 in
16:09 58.5 °F 45.9 °F 29.81 in WSW 3.0 mph 8.0 mph 63% 0.00 in
16:14 58.7 °F 47.0 °F 29.81 in WSW 3.0 mph 10.0 mph 65% 0.00 in
16:19 59.9 °F 47.3 °F 29.81 in SW 5.0 mph 10.0 mph 63% 0.00 in
16:24 60.3 °F 48.1 °F 29.81 in WSW 4.0 mph 8.0 mph 64% 0.00 in
16:29 60.1 °F 46.6 °F 29.81 in West 5.0 mph 9.0 mph 61% 0.00 in
16:34 60.0 °F 46.1 °F 29.81 in WSW 5.0 mph 10.0 mph 60% 0.00 in
16:39 60.0 °F 46.1 °F 29.81 in WSW 5.0 mph 10.0 mph 60% 0.00 in
16:44 59.9 °F 46.8 °F 29.81 in SW 5.0 mph 9.0 mph 62% 0.00 in
16:49 60.4 °F 46.9 °F 29.81 in SW 5.0 mph 10.0 mph 61% 0.00 in
16:54 60.4 °F 46.9 °F 29.81 in SSW 7.0 mph 11.0 mph 61% 0.00 in
16:59 60.4 °F 46.0 °F 29.81 in WSW 5.0 mph 10.0 mph 59% 0.00 in
17:04 60.2 °F 46.3 °F 29.81 in SW 5.0 mph 10.0 mph 60% 0.00 in
17:09 60.3 °F 45.9 °F 29.81 in WSW 4.0 mph 8.0 mph 59% 0.00 in
17:14 60.2 °F 46.3 °F 29.81 in SW 5.0 mph 8.0 mph 60% 0.00 in
17:19 60.2 °F 46.7 °F 29.81 in SSW 3.0 mph 9.0 mph 61% 0.00 in
17:24 60.8 °F 46.8 °F 29.81 in South 4.0 mph 8.0 mph 60% 0.00 in
17:29 60.9 °F 46.5 °F 29.81 in WSW 5.0 mph 8.0 mph 59% 0.00 in
17:34 60.6 °F 46.2 °F 29.81 in SW 4.0 mph 9.0 mph 59% 0.00 in
17:39 60.7 °F 46.3 °F 29.81 in SSW 5.0 mph 9.0 mph 59% 0.00 in
17:44 60.5 °F 46.1 °F 29.81 in SSW 3.0 mph 8.0 mph 59% 0.00 in
17:49 60.3 °F 45.5 °F 29.81 in SW 4.0 mph 8.0 mph 58% 0.00 in
17:54 60.3 °F 45.9 °F 29.80 in SW 4.0 mph 6.0 mph 59% 0.00 in
17:59 60.2 °F 45.4 °F 29.80 in SW 5.0 mph 9.0 mph 58% 0.00 in
18:04 60.0 °F 45.6 °F 29.81 in SW 5.0 mph 11.0 mph 59% 0.00 in
18:09 59.8 °F 45.4 °F 29.81 in SW 5.0 mph 11.0 mph 59% 0.00 in
18:14 59.5 °F 45.2 °F 29.80 in SW 5.0 mph 10.0 mph 59% 0.00 in
18:19 59.2 °F 45.3 °F 29.81 in SW 5.0 mph 10.0 mph 60% 0.00 in
18:24 59.0 °F 45.6 °F 29.81 in WSW 6.0 mph 7.0 mph 61% 0.00 in
18:29 59.0 °F 46.0 °F 29.80 in WSW 3.0 mph 7.0 mph 62% 0.00 in
18:34 59.2 °F 46.2 °F 29.80 in SW 2.0 mph 7.0 mph 62% 0.00 in
18:39 59.3 °F 46.3 °F 29.80 in West 2.0 mph 7.0 mph 62% 0.00 in
18:44 59.4 °F 45.5 °F 29.81 in SW 5.0 mph 10.0 mph 60% 0.00 in
18:49 59.1 °F 45.7 °F 29.81 in West 3.0 mph 10.0 mph 61% 0.00 in
18:54 58.7 °F 44.8 °F 29.81 in West 3.0 mph 12.0 mph 60% 0.00 in
18:59 58.1 °F 44.7 °F 29.80 in WSW 5.0 mph 12.0 mph 61% 0.00 in
19:04 57.8 °F 44.9 °F 29.81 in WSW 5.0 mph 12.0 mph 62% 0.00 in
19:09 57.3 °F 44.4 °F 29.81 in WSW 6.0 mph 12.0 mph 62% 0.00 in
19:14 56.9 °F 44.4 °F 29.81 in WSW 5.0 mph 11.0 mph 63% 0.00 in
19:19 56.6 °F 44.6 °F 29.81 in SW 4.0 mph 10.0 mph 64% 0.00 in
19:24 56.2 °F 44.6 °F 29.80 in SW 2.0 mph 7.0 mph 65% 0.00 in
19:34 55.9 °F 44.7 °F 29.80 in WSW 6.0 mph 7.0 mph 66% 0.00 in
19:39 55.8 °F 44.6 °F 29.80 in WSW 5.0 mph 7.0 mph 66% 0.00 in
19:44 55.8 °F 44.6 °F 29.80 in SW 4.0 mph 6.0 mph 66% 0.00 in
19:49 55.9 °F 44.7 °F 29.81 in WSW 1.0 mph 5.0 mph 66% 0.00 in
19:54 55.8 °F 44.6 °F 29.81 in SW 3.0 mph 5.0 mph 66% 0.00 in
19:59 55.8 °F 44.6 °F 29.81 in WSW 3.0 mph 5.0 mph 66% 0.00 in
20:04 55.8 °F 44.6 °F 29.81 in WSW 3.0 mph 5.0 mph 66% 0.00 in
20:09 55.7 °F 44.5 °F 29.81 in WSW 2.0 mph 4.0 mph 66% 0.00 in
20:14 55.8 °F 44.6 °F 29.81 in SW 2.0 mph 6.0 mph 66% 0.00 in
20:19 55.7 °F 44.5 °F 29.80 in WSW 1.0 mph 5.0 mph 66% 0.00 in
20:24 55.7 °F 44.5 °F 29.81 in Calm   4.0 mph 66% 0.00 in
20:29 55.7 °F 44.5 °F 29.80 in WSW 2.0 mph 5.0 mph 66% 0.00 in
20:34 55.6 °F 44.8 °F 29.81 in WSW 2.0 mph 5.0 mph 67% 0.00 in
20:39 55.6 °F 44.8 °F 29.81 in SW 2.0 mph 5.0 mph 67% 0.00 in
20:44 55.5 °F 44.7 °F 29.81 in Calm   5.0 mph 67% 0.00 in
20:49 55.3 °F 44.5 °F 29.81 in SW 1.0 mph 4.0 mph 67% 0.00 in
20:54 55.2 °F 44.4 °F 29.81 in SW 2.0 mph 3.0 mph 67% 0.00 in
20:59 55.0 °F 44.2 °F 29.81 in SW 1.0 mph 3.0 mph 67% 0.00 in
21:04 54.9 °F 44.5 °F 29.81 in SW 1.0 mph 3.0 mph 68% 0.00 in
21:09 54.7 °F 44.3 °F 29.81 in SW 1.0 mph 3.0 mph 68% 0.00 in
21:14 54.6 °F 44.2 °F 29.81 in Calm   2.0 mph 68% 0.00 in
21:19 54.5 °F 44.2 °F 29.81 in Calm   3.0 mph 68% 0.00 in
21:24 54.3 °F 44.0 °F 29.81 in SW 3.0 mph 4.0 mph 68% 0.00 in
21:29 54.1 °F 44.2 °F 29.81 in SSW 1.0 mph 4.0 mph 69% 0.00 in
21:34 53.9 °F 44.0 °F 29.81 in SW 2.0 mph 4.0 mph 69% 0.00 in
21:39 53.8 °F 44.2 °F 29.81 in SW 1.0 mph 4.0 mph 70% 0.00 in
21:44 53.6 °F 44.4 °F 29.81 in Calm   3.0 mph 71% 0.00 in
21:49 53.4 °F 44.2 °F 29.81 in SW 1.0 mph 4.0 mph 71% 0.00 in
21:54 53.2 °F 44.4 °F 29.81 in SSW 2.0 mph 5.0 mph 72% 0.00 in
21:59 53.0 °F 44.2 °F 29.81 in Calm   3.0 mph 72% 0.00 in
22:04 52.8 °F 44.4 °F 29.81 in SW 2.0 mph 4.0 mph 73% 0.00 in
22:09 52.7 °F 44.3 °F 29.81 in SW 1.0 mph 4.0 mph 73% 0.00 in
22:14 52.6 °F 44.5 °F 29.81 in WSW 3.0 mph 3.0 mph 74% 0.00 in
22:19 52.4 °F 44.4 °F 29.80 in WSW 2.0 mph 3.0 mph 74% 0.00 in
22:24 52.4 °F 44.7 °F 29.80 in WSW 1.0 mph 3.0 mph 75% 0.00 in
22:29 52.3 °F 44.6 °F 29.79 in SSW 2.0 mph 5.0 mph 75% 0.00 in
22:34 52.2 °F 44.5 °F 29.78 in SSW 2.0 mph 6.0 mph 75% 0.00 in
22:39 52.0 °F 44.7 °F 29.78 in South 3.0 mph 7.0 mph 76% 0.00 in
22:44 52.0 °F 45.0 °F 29.77 in South 3.0 mph 7.0 mph 77% 0.00 in
22:49 52.1 °F 45.1 °F 29.78 in SSW 3.0 mph 7.0 mph 77% 0.00 in
22:54 52.1 °F 45.1 °F 29.78 in SSW 1.0 mph 5.0 mph 77% 0.00 in
22:59 52.1 °F 45.1 °F 29.78 in Calm   4.0 mph 77% 0.00 in
23:04 52.2 °F 45.2 °F 29.78 in Calm   3.0 mph 77% 0.00 in
23:09 52.2 °F 45.2 °F 29.78 in Calm   3.0 mph 77% 0.00 in
23:14 52.1 °F 45.1 °F 29.78 in SSW 1.0 mph 3.0 mph 77% 0.00 in
23:19 52.0 °F 45.0 °F 29.78 in Calm   2.0 mph 77% 0.00 in
23:24 51.9 °F 44.6 °F 29.78 in Calm   2.0 mph 76% 0.00 in
23:29 51.8 °F 44.5 °F 29.78 in Calm   1.0 mph 76% 0.00 in
23:34 51.5 °F 44.2 °F 29.78 in Calm     76% 0.00 in
23:39 51.3 °F 44.0 °F 29.78 in Calm     76% 0.00 in
23:44 51.0 °F 43.7 °F 29.78 in Calm     76% 0.00 in
23:49 50.8 °F 43.8 °F 29.78 in Calm     77% 0.00 in
23:54 50.6 °F 43.7 °F 29.78 in Calm   2.0 mph 77% 0.00 in
23:59 50.4 °F 43.5 °F 29.78 in Calm   2.0 mph 77% 0.00 in
Buffalo, New York, USA
Compliments of Weather Underground - 2.5 mb